Погода в Мессине

Италия     38°10′43″N   15°32′57″E
темп.,
°C
ветер,
м/с
пор.,
м/с
влажн.,
%
обл.,
%
осадки,
мм/ч
давл.,
гПа
погр.,
м
17 сентября, пт
пт1723:00+23юв116676 0.0 101814
02:00+24ю224996 0.0 101719
05:00+23ююв456422 0.0 101579
08:00+24ююв226473 0.3 101525
11:00+29с124450 0.0 1016329
14:00+29ссв33435 0.4 1015336
17:00+28ссв344215 0.0 1015197
20:00+24с116286 0.0 101619
18 сентября, сб
сб1823:00+25ю434380 0.0 101438
02:00+24ююв45485 0.0 101462
05:00+23вюв12705 0.0 101434
08:00+25з115868 0.0 101544
11:00+32ююв35346 0.0 1013482
14:00+32з363477 0.0 1013930
17:00+31юв2239100 0.0 1012226
20:00+24зсз1171100 0.0 101421
19 сентября, вс
вс1923:00+24ююв225598 0.0 101314
02:00+23ю116132 0.0 101313
05:00+23зсз11645 0.0 101421
08:00+24ссв00615 0.0 101433
11:00+27ссз22505 0.0 1015388
14:00+28с33470 0.0 1014473
17:00+26с34610 0.0 1014495
20:00+23с12820 0.0 101540
20 сентября, пн
пн2023:00+22ссз23850 0.0 1016140
02:00+22ссз239032 0.0 1016269
05:00+22ссз238829 0.1 1016251
08:00+23с2285100 0.1 1015390
11:00+25ссв326881 0.0 1016474
14:00+26ссв435797 0.0 1015484
17:00+25ссв3464100 0.0 1014334
20:00+23с2378100 0.1 1016226
21 сентября, вт
вт2123:00+23ссз3478100 0.0 1018319
02:00+22с3579100 0.0 1017436
05:00+22св2379100 0.0 1016209
08:00+22св367782 0.0 1017426
11:00+24св2267100 0.0 1017308
14:00+26юв255383 0.0 1016357
17:00+27вюв135114 0.0 1015446
20:00+22вюв117654 0.0 101727